FW7863 Weather Reports


Display with metric or nautical units.
time (UTC)temp
F
wind
direction
speed
MPH
gust
MPH
rain 1hr
in
rain 24hr
in
rain mn
in
humidity
%
barometer
mb
20260504150716 68 143 1.0 2.0 0.00 0.00 0.00 44 1013.6
20260504150213 67 197 2.0 2.0 0.00 0.00 0.00 45 1013.3
20260504141142 65 175 2.0 3.0 0.00 0.00 0.00 49 1013.4
20260504140639 66 174 5.0 8.0 0.00 0.00 0.00 49 1013.6
20260504140135 65 142 0.0 7.0 0.00 0.00 0.00 52 1013.3
20260504130603 61 135 0.0 5.0 0.00 0.00 0.00 56 1013.9
20260504110450 52 134 0.0 0.0 0.00 0.00 0.00 75 1014.7
20260504100413 45 136 0.0 1.0 0.00 0.00 0.00 87 1014.6
20260504081806 47 141 0.0 0.0 0.00 0.00 0.00 73 1014.8
20260504081303 48 158 0.0 0.0 0.00 0.00 0.00 71 1014.4
20260504080759 48 169 0.0 1.0 0.00 0.00 0.00 70 1014.6
20260504080255 48 136 0.0 0.0 0.00 0.00 0.00 70 1014.7
20260504070223 45 133 0.0 0.0 0.00 0.00 0.00 73 1014.5
20260504060144 46 142 0.0 0.0 0.00 0.00 0.00 70 1014.4
20260504050612 46 139 0.0 0.0 0.00 0.00 0.00 69 1014.2
20260504050109 46 144 0.0 0.0 0.00 0.00 0.00 69 1014.4
20260504045606 46 147 0.0 0.0 0.00 0.00 0.00 67 1014.3
20260504045100 46 141 0.0 0.0 0.00 0.00 0.00 67 1014.2
20260504044558 46 140 0.0 0.0 0.00 0.00 0.00 67 1014.3
20260504044055 46 138 0.0 0.0 0.00 0.00 0.00 67 1014.0
20260504043553 47 141 0.0 0.0 0.00 0.00 0.00 67 1014.3
20260504043049 46 129 0.0 0.0 0.00 0.00 0.00 66 1014.0
20260504042546 47 143 0.0 0.0 0.00 0.00 0.00 67 1014.2
20260504042043 47 135 0.0 0.0 0.00 0.00 0.00 67 1014.2
20260504041539 47 140 0.0 0.0 0.00 0.00 0.00 67 1014.1
20260504041036 46 133 0.0 0.0 0.00 0.00 0.00 66 1013.9
20260504040533 46 146 0.0 0.0 0.00 0.00 0.00 66 1013.8
20260504040030 46 140 0.0 0.0 0.00 0.00 0.00 66 1013.9
20260504035527 46 143 0.0 0.0 0.00 0.00 0.00 67 1013.8
20260504035023 46 142 0.0 0.0 0.00 0.00 0.00 67 1013.8
20260504034521 46 143 0.0 0.0 0.00 0.00 0.00 68 1013.9
20260504034017 46 141 0.0 0.0 0.00 0.00 0.00 68 1013.8
20260504033515 46 145 0.0 0.0 0.00 0.00 0.00 67 1013.8
20260504033013 46 141 0.0 0.0 0.00 0.00 0.00 67 1013.7
20260504032509 46 147 0.0 0.0 0.00 0.00 0.00 66 1013.7
20260504032006 46 145 0.0 0.0 0.00 0.00 0.00 66 1013.6
20260504031503 46 142 0.0 0.0 0.00 0.00 0.00 65 1013.7
20260504030959 46 141 0.0 0.0 0.00 0.00 0.00 65 1013.4
20260504030457 47 151 0.0 0.0 0.00 0.00 0.00 63 1013.7
20260504025952 47 149 0.0 0.0 0.00 0.00 0.00 61 1013.7
20260504025450 47 147 0.0 0.0 0.00 0.00 0.00 60 1013.7
20260504024946 48 145 0.0 0.0 0.00 0.00 0.00 61 1013.6
20260504024443 48 140 0.0 0.0 0.00 0.00 0.00 59 1013.6
20260504023940 48 140 0.0 0.0 0.00 0.00 0.00 59 1013.7
20260504023437 48 138 0.0 0.0 0.00 0.00 0.00 59 1013.7
20260504022932 48 135 0.0 0.0 0.00 0.00 0.00 59 1013.7
20260504022429 48 146 0.0 0.0 0.00 0.00 0.00 58 1013.9
20260504021925 48 148 0.0 0.0 0.00 0.00 0.00 59 1013.8
20260504021423 48 148 0.0 0.0 0.00 0.00 0.00 61 1014.0
20260504020920 48 146 0.0 0.0 0.00 0.00 0.00 61 1013.7
20260504020416 48 141 0.0 0.0 0.00 0.00 0.00 61 1013.8
20260504015913 48 152 0.0 0.0 0.00 0.00 0.00 58 1013.8
20260504015409 48 138 0.0 0.0 0.00 0.00 0.00 60 1013.9
20260504014905 48 142 0.0 0.0 0.00 0.00 0.00 62 1013.7
20260504014401 48 144 0.0 0.0 0.00 0.00 0.00 63 1013.7
20260504013859 48 147 0.0 0.0 0.00 0.00 0.00 60 1013.8
20260504013357 49 150 0.0 0.0 0.00 0.00 0.00 58 1013.4
20260504012853 49 145 0.0 0.0 0.00 0.00 0.00 56 1013.7
20260504012351 49 145 0.0 0.0 0.00 0.00 0.00 58 1013.3
20260504011848 49 145 0.0 0.0 0.00 0.00 0.00 58 1013.4
20260504011344 50 149 0.0 0.0 0.00 0.00 0.00 57 1013.7
20260504010841 50 150 0.0 0.0 0.00 0.00 0.00 56 1013.4
20260504010336 50 151 0.0 0.0 0.00 0.00 0.00 55 1013.3
20260504005833 51 150 0.0 0.0 0.00 0.00 0.00 54 1013.1
20260504005330 51 148 0.0 0.0 0.00 0.00 0.00 54 1013.3
20260504004827 51 150 0.0 0.0 0.00 0.00 0.00 55 1013.1
20260504004325 52 147 0.0 0.0 0.00 0.00 0.00 52 1012.9
20260504003821 52 148 0.0 0.0 0.00 0.00 0.00 50 1012.8
20260504003318 53 149 0.0 0.0 0.00 0.00 0.00 51 1012.6
20260504002815 53 150 0.0 0.0 0.00 0.00 0.00 51 1012.8
20260504002312 53 154 0.0 0.0 0.00 0.00 0.00 46 1012.7
20260504001809 54 147 0.0 0.0 0.00 0.00 0.00 42 1012.5
20260504001307 55 152 0.0 0.0 0.00 0.00 0.00 41 1012.5
20260504000803 55 147 0.0 0.0 0.00 0.00 0.00 39 1012.5
20260504000300 56 153 0.0 1.0 0.00 0.00 0.00 38 1012.4
20260503235758 56 157 0.0 1.0 0.00 0.00 0.00 37 1012.4
20260503235256 57 152 1.0 1.0 0.00 0.00 0.00 37 1012.4
20260503234753 57 163 1.0 1.0 0.00 0.00 0.00 36 1012.4
20260503234251 58 154 0.0 2.0 0.00 0.00 0.00 35 1012.4
20260503233748 58 233 2.0 5.0 0.00 0.00 0.00 35 1012.3
20260503233243 58 232 3.0 3.0 0.00 0.00 0.00 35 1012.3
20260503232741 58 117 1.0 2.0 0.00 0.00 0.00 35 1012.3
20260503232238 58 291 2.0 5.0 0.00 0.00 0.00 35 1011.9
20260503231736 58 275 2.0 3.0 0.00 0.00 0.00 34 1012.3
20260503231233 59 148 0.0 3.0 0.00 0.00 0.00 34 1012.2
20260503230728 59 130 1.0 5.0 0.00 0.00 0.00 34 1012.1
20260503230226 59 246 3.0 7.0 0.00 0.00 0.00 33 1012.0
20260503225723 59 232 1.0 5.0 0.00 0.00 0.00 35 1011.9
20260503225223 60 230 2.0 9.0 0.00 0.00 0.00 34 1012.0
20260503224721 60 292 1.0 3.0 0.00 0.00 0.00 32 1011.7
20260503224219 60 227 1.0 5.0 0.00 0.00 0.00 32 1011.8
20260503223716 60 281 4.0 6.0 0.00 0.00 0.00 32 1012.1
20260503223213 60 275 3.0 5.0 0.00 0.00 0.00 32 1012.0
20260503222709 61 264 5.0 7.0 0.00 0.00 0.00 30 1011.8
20260503222207 61 183 3.0 5.0 0.00 0.00 0.00 30 1012.1
20260503221706 61 224 3.0 3.0 0.00 0.00 0.00 29 1011.8
20260503221203 61 281 3.0 13.0 0.00 0.00 0.00 30 1011.8
20260503220659 62 153 0.0 2.0 0.00 0.00 0.00 30 1011.8
20260503220156 61 162 1.0 9.0 0.00 0.00 0.00 31 1011.8
20260503215653 61 151 3.0 8.0 0.00 0.00 0.00 31 1011.9
20260503215149 61 191 1.0 3.0 0.00 0.00 0.00 34 1011.8
20260503214649 61 231 6.0 8.0 0.00 0.00 0.00 31 1012.1
20260503214144 62 69 1.0 2.0 0.00 0.00 0.00 32 1011.8
20260503213644 61 158 4.0 5.0 0.00 0.00 0.00 32 1011.9
20260503213140 61 140 0.0 6.0 0.00 0.00 0.00 34 1012.0
20260503212637 61 193 3.0 9.0 0.00 0.00 0.00 31 1012.1
20260503212135 61 195 1.0 5.0 0.00 0.00 0.00 32 1011.9
20260503211632 61 123 2.0 6.0 0.00 0.00 0.00 31 1011.8
20260503211127 61 289 1.0 7.0 0.00 0.00 0.00 31 1011.8
20260503210624 62 23 2.0 10.0 0.00 0.00 0.00 34 1012.0
20260503210121 62 258 4.0 5.0 0.00 0.00 0.00 33 1011.8
20260503205616 60 239 1.0 3.0 0.00 0.00 0.00 33 1011.9
20260503205113 61 90 1.0 6.0 0.00 0.00 0.00 32 1012.0
20260503204610 61 56 2.0 9.0 0.00 0.00 0.00 32 1012.1
20260503204107 62 247 1.0 5.0 0.00 0.00 0.00 33 1011.9
20260503203604 60 193 1.0 6.0 0.00 0.00 0.00 32 1012.0
20260503203101 59 175 1.0 7.0 0.00 0.00 0.00 33 1012.0
20260503202559 60 184 5.0 11.0 0.00 0.00 0.00 32 1011.8
20260503202056 59 246 5.0 6.0 0.00 0.00 0.00 32 1012.0
20260503201554 59 106 1.0 9.0 0.00 0.00 0.00 32 1011.8
20260503201051 60 288 2.0 2.0 0.00 0.00 0.00 31 1011.9
20260503200548 62 75 1.0 2.0 0.00 0.00 0.00 31 1012.0
20260503200044 61 243 1.0 3.0 0.00 0.00 0.00 33 1012.2
20260503195541 60 269 3.0 10.0 0.00 0.00 0.00 32 1012.4
20260503195038 59 213 3.0 5.0 0.00 0.00 0.00 33 1011.9
20260503194536 61 209 1.0 2.0 0.00 0.00 0.00 33 1012.0
20260503194035 61 175 0.0 2.0 0.00 0.00 0.00 33 1012.2
20260503193532 60 288 3.0 8.0 0.00 0.00 0.00 32 1012.0
20260503193027 60 159 0.0 5.0 0.00 0.00 0.00 32 1012.2
20260503192524 61 269 5.0 7.0 0.00 0.00 0.00 30 1012.1
20260503192020 60 232 2.0 3.0 0.00 0.00 0.00 33 1012.3
20260503191517 60 274 3.0 5.0 0.00 0.00 0.00 32 1012.3
20260503191014 60 201 2.0 7.0 0.00 0.00 0.00 32 1012.1
20260503190510 60 198 3.0 7.0 0.00 0.00 0.00 30 1012.5
20260503190008 60 242 6.0 8.0 0.00 0.00 0.00 30 1012.3
20260503185504 59 256 2.0 5.0 0.00 0.00 0.00 31 1012.5
20260503185004 61 110 5.0 14.0 0.00 0.00 0.00 29 1012.5
20260503184500 60 182 1.0 5.0 0.00 0.00 0.00 32 1012.5
20260503183956 60 141 1.0 7.0 0.00 0.00 0.00 36 1012.4
20260503183453 58 290 3.0 5.0 0.00 0.00 0.00 37 1012.6
20260503182950 59 219 4.0 5.0 0.00 0.00 0.00 33 1012.8
20260503182449 59 216 2.0 8.0 0.00 0.00 0.00 33 1012.8
20260503181946 59 219 5.0 6.0 0.00 0.00 0.00 32 1012.5
20260503181443 58 342 2.0 10.0 0.00 0.00 0.00 33 1012.7
20260503180939 58 284 7.0 8.0 0.00 0.00 0.00 33 1012.8
20260503180438 57 135 3.0 11.0 0.00 0.00 0.00 36 1012.8
20260503175934 58 212 3.0 9.0 0.00 0.00 0.00 35 1012.9
20260503175432 58 175 3.0 10.0 0.00 0.00 0.00 37 1012.9
20260503174928 58 272 2.0 6.0 0.00 0.00 0.00 34 1013.0
20260503174426 59 171 1.0 5.0 0.00 0.00 0.00 40 1012.9
20260503173926 57 297 5.0 6.0 0.00 0.00 0.00 34 1012.8
20260503173422 56 281 2.0 11.0 0.00 0.00 0.00 37 1013.0
20260503172919 58 262 3.0 5.0 0.00 0.00 0.00 36 1012.9
20260503172417 56 160 1.0 6.0 0.00 0.00 0.00 38 1012.8
20260503171913 57 171 2.0 9.0 0.00 0.00 0.00 37 1013.0
20260503171410 56 167 1.0 2.0 0.00 0.00 0.00 39 1012.8
20260503170907 58 162 0.0 6.0 0.00 0.00 0.00 36 1012.9
20260503170403 58 357 3.0 13.0 0.00 0.00 0.00 36 1012.9